Location: Treviso
(45.6669°N, 12.2430°E)
Time: 10:32:55
(UTC+02:00)

ISS - Pass Details

Date: 23 May 2017
Orbit: 402 x 407 km, 51.6° (Epoch: 21 September)

Event Time Altitude Azimuth Distance (km) Brightness Sun altitude
Rises 03:00:38 0° 296° (WNW) 2,356 0.0 -19.0°
Reaches altitude 10° 03:02:51 10° 305° (NW) 1,489 -0.9 -18.8°
Drops below altitude 10° 03:09:02 10° 81° (E) 1,479 -0.5 -18.3°
Enters shadow 04:22:16 -36° 297° (WNW) 8,134 2.7 -10.4°
Exits shadow 04:30:57 -17° 298° (WNW) 4,939 1.5 -9.3°
Maximum altitude 04:42:43 66° 213° (SSW) 452 -3.8 -7.8°
